Regional Weather Roundup
Issued by NWS

Home | Current Version | Previous Version | Text Only | Print | Product List | Glossary On
Versions: 1 2 3 4 5 6 7 8 9 10 11 12 13 14 15 16 17 18 19 20 21 22 23 24 25 26 27 28 29 30 31 32 33 34 35 36 37 38 39 40 41 42 43 44 45 46 47 48 49 50
000
ASUS44 KOUN 260510
RWROK

WEATHER ROUNDUP FOR OKLAHOMA
NATIONAL WEATHER SERVICE NORMAN OK
1200 AM CDT MON JUN 26 2017

NOTE: "FAIR" INDICATES FEW OR NO CLOUDS BELOW 12,000 FEET WITH NO
      SIGNIFICANT WEATHER AND/OR OBSTRUCTIONS TO VISIBILITY.

OKZ001>007-009>012-014-015-017-260600-
NORTHWEST OKLAHOMA AND THE PANHANDLE

CITY           SKY/WX    TMP DP  RH WIND       PRES   REMARKS
GAGE           CLOUDY    65  56  72 SE6       30.22R
GUYMON         CLOUDY    67  62  84 E12       30.22R
ENID/WOODRING  CLOUDY    68  61  77 E15       30.20R
$$

OKZ016-021>023-033>039-044-045-260600-
SOUTHWEST OKLAHOMA

CITY           SKY/WX    TMP DP  RH WIND       PRES   REMARKS
LAWTON/REGL    CLOUDY    71  62  73 SE6       30.18R
LAWTON/FT SILL CLOUDY    71  62  73 SE6       30.17R
FREDERICK      MOCLDY    72  65  78 E8        30.15R
CLINTON        MOCLDY    74  53  48 SE7       30.21R
HOBART         CLOUDY    71  58  63 S6        30.20R
ALTUS AFB      MOCLDY    72  58  60 SE7       30.18R
$$

OKZ018>020-024>031-260600-
CENTRAL OKLAHOMA

CITY           SKY/WX    TMP DP  RH WIND       PRES   REMARKS
OKLAHOMA CITY  MOCLDY    72  55  55 E8        30.19R
OKC/WILEY POST CLOUDY    75  55  49 SE7       30.19R
OKC/TINKER AFB CLEAR     70  56  60 E5        30.19S
STILLWATER     CLOUDY    69  60  73 NE9       30.20R
GUTHRIE        MOCLDY    72  54  53 SE7       30.19R
$$

OKZ008-013-054>072-260600-
NORTHEAST OKLAHOMA

CITY           SKY/WX    TMP DP  RH WIND       PRES   REMARKS
TULSA          MOCLDY    75  62  64 NE7       30.19R
TULSA/JONES    CLOUDY    76  56  49 E5        30.19R
PONCA CITY     CLEAR     69  55  60 E13       30.20S
BARTLESVILLE   CLOUDY    68  55  63 NE3       30.23S
MUSKOGEE       CLOUDY    72  64  76 CALM      30.20R
$$

OKZ032-040>043-046>053-073>077-260600-
SOUTH CENTRAL/SOUTHEAST OKLAHOMA

CITY           SKY/WX    TMP DP  RH WIND       PRES   REMARKS
ARDMORE/DWNTWN CLEAR     70  59  68 CALM      30.17F
MCALESTER      MOCLDY    74  61  63 E3        30.20R
$$





USA.gov is the U.S. government's official web portal to all federal, state and local government web resources and services.